Theta_e
326 326 326 326 326 326 327 327 327 328 328 326 326 326 328 330 328 327 328 327 326 325 322 323 325 327 326 324 325 325 323 323 322 318 317 315 313 313 313 315 315 315 316 316 316 316 315 315 314 310 306 303 301 300 300 298 298 298 299 300 303 305 307 307 308 308 308 308 307 307 307 307 307 307 306 306 307 308 308 309 309 310 310 310 310 310 310 310 310 310 310 310 310 310 309 306 304
326 326 325 325 326 327 327 327 327 326 327 325 325 327 328 328 327 328 328 327 326 322 320 322 323 323 321 320 322 324 323 321 319 315 314 313 313 315 314 315 316 316 317 316 316 315 314 314 311 306 303 301 299 299 299 298 299 300 300 302 305 307 308 308 308 308 308 308 307 307 307 306 306 307 306 306 307 307 307 308 308 309 310 310 310 309 309 309 309 310 309 310 309 309 308 306 302
326 326 324 325 326 327 328 328 327 325 326 326 326 328 328 329 328 327 327 324 322 319 319 321 321 322 322 322 322 322 322 319 316 314 313 313 314 315 315 316 315 315 316 316 315 314 314 312 306 302 301 299 299 299 299 300 302 302 303 305 307 308 309 309 309 309 308 308 308 307 307 307 306 306 305 305 306 307 307 307 308 308 309 309 309 308 308 308 309 309 309 309 308 309 308 306 302
325 325 324 324 326 328 328 328 328 327 327 326 326 327 328 328 326 324 324 321 318 318 320 321 322 321 322 322 322 321 320 318 315 314 313 313 313 314 316 315 315 315 315 316 314 313 313 308 302 301 300 299 300 299 300 301 303 302 304 306 308 308 308 309 308 308 308 308 308 307 307 307 306 306 305 305 306 306 307 307 307 308 308 308 308 308 308 308 308 308 308 308 307 308 307 306 304
323 324 324 325 327 327 328 329 329 328 328 327 325 325 325 324 324 322 321 319 317 318 320 322 322 319 319 319 320 320 317 316 314 313 313 313 313 314 315 315 315 315 315 315 313 313 311 304 300 299 298 299 299 299 299 301 303 303 305 307 307 307 308 308 308 307 307 307 307 307 307 306 306 305 305 305 306 306 307 307 307 307 307 307 307 307 307 307 307 307 307 307 307 307 307 306 305
322 322 323 324 325 325 326 328 328 327 328 328 327 326 323 322 323 322 320 318 317 317 318 321 320 317 318 317 317 318 315 314 313 312 312 312 313 314 314 315 315 314 314 313 311 312 307 299 298 298 297 298 298 298 299 301 302 303 305 305 305 306 306 306 305 305 305 305 305 306 305 305 304 304 304 304 305 306 306 306 306 307 307 307 307 306 306 306 306 306 306 306 306 307 306 306 305
321 322 324 324 325 324 326 327 326 327 327 327 327 327 324 322 322 321 320 319 317 316 316 319 318 316 317 314 313 315 313 312 311 311 311 311 313 313 314 314 313 313 312 310 309 310 303 297 297 297 297 298 298 298 299 300 300 300 300 300 300 301 301 300 300 300 300 300 301 302 303 303 302 300 300 301 303 304 305 305 305 306 306 306 306 305 305 305 305 305 306 305 306 306 306 306 305
321 323 324 324 326 325 325 326 326 327 326 325 325 325 324 323 321 320 320 319 318 317 316 317 316 315 316 312 311 312 311 311 309 309 310 310 312 313 313 313 312 311 309 308 310 307 298 296 297 297 298 298 298 298 298 298 298 297 297 297 297 297 296 296 296 296 296 296 297 297 298 299 298 297 297 297 299 300 302 304 304 304 304 304 304 304 304 304 305 305 305 305 305 305 305 305 303
321 322 322 323 325 325 324 325 325 326 325 323 324 323 321 322 320 319 320 319 318 317 317 317 315 315 314 312 312 309 308 309 308 308 308 309 311 313 313 311 310 309 306 306 307 301 296 297 297 297 298 297 298 297 297 297 297 297 296 296 296 296 296 296 296 296 296 296 296 296 296 296 296 296 296 297 297 297 299 301 303 303 302 302 302 302 303 303 304 304 304 305 305 305 305 303 301
321 321 322 323 323 323 322 323 323 324 324 323 323 322 320 320 320 319 319 318 318 316 316 315 314 314 313 313 312 309 307 307 307 307 307 308 310 312 311 309 308 306 303 302 302 299 297 297 297 297 297 297 297 297 297 296 296 296 296 295 295 295 295 295 295 295 296 296 296 296 296 296 296 296 296 296 296 296 296 298 301 301 301 301 300 300 302 303 303 303 303 304 304 304 303 302 301
321 320 320 320 320 319 319 320 321 322 323 321 321 320 318 319 319 318 318 318 318 317 314 312 314 313 312 312 312 309 307 306 306 306 307 308 310 311 310 307 306 302 300 300 302 301 297 297 297 297 297 297 297 296 296 296 296 295 295 295 295 295 295 295 295 295 295 295 295 295 295 295 296 296 296 296 296 296 296 296 298 299 299 300 299 298 300 301 301 301 301 301 302 302 301 301 302
320 321 320 317 317 318 318 319 320 320 320 318 319 318 317 317 318 317 318 318 317 317 315 312 313 313 312 313 311 308 306 305 306 306 306 307 309 310 307 305 302 299 299 299 302 300 296 298 297 297 297 296 296 296 295 295 295 295 295 295 295 295 295 295 295 295 295 295 295 295 295 295 295 295 295 295 295 295 295 295 295 296 297 297 297 297 297 298 299 299 299 299 300 300 300 301 301
319 321 320 318 318 318 319 318 319 317 316 316 318 317 316 317 317 317 318 318 317 316 316 314 312 311 312 312 309 307 306 305 306 305 305 305 308 309 306 303 299 298 297 298 301 301 299 299 298 297 296 296 296 295 295 295 295 295 295 295 295 295 295 295 295 295 295 295 295 295 295 295 295 295 295 295 295 295 295 295 295 295 295 296 296 297 297 297 298 298 298 299 299 299 299 299 300
318 320 319 319 318 318 318 316 316 315 315 317 317 316 316 317 317 317 317 317 317 315 315 314 311 311 312 311 308 307 306 305 305 304 303 304 306 307 304 301 298 297 297 298 301 301 302 302 300 297 296 297 296 295 295 294 295 295 295 295 295 295 295 295 295 295 295 295 294 294 294 295 295 295 295 295 296 296 296 296 295 295 295 296 296 296 296 297 297 298 298 298 298 298 298 299 299
316 318 318 317 317 316 316 315 315 314 314 316 316 316 316 316 316 316 317 316 315 313 313 312 311 311 311 310 309 308 306 305 305 304 303 303 305 306 303 300 297 297 296 298 299 299 302 303 302 299 300 303 301 299 297 294 294 295 294 295 295 295 295 295 295 295 295 295 294 294 294 294 295 295 295 296 296 296 296 296 296 296 295 296 296 296 296 296 296 297 297 297 298 298 297 298 298
314 316 316 316 315 314 315 316 315 313 313 314 314 315 316 317 315 315 316 315 314 312 312 312 311 310 308 308 307 307 305 305 305 304 304 303 304 305 302 298 296 296 296 297 298 298 302 304 304 302 303 305 304 304 303 298 294 295 295 295 295 295 295 295 295 295 295 295 295 295 295 295 295 296 295 296 296 296 296 296 296 296 296 296 296 296 296 296 296 296 296 297 297 297 297 297 297
313 315 314 314 314 313 315 316 314 313 312 313 314 314 315 316 315 314 313 313 314 313 312 312 310 308 307 306 305 306 305 305 305 304 304 302 303 304 300 297 296 296 296 296 297 297 300 304 305 303 303 303 301 302 303 299 295 294 295 295 295 295 295 295 295 295 295 295 295 295 295 295 296 296 295 295 295 295 296 296 296 296 296 296 296 296 296 296 296 297 297 297 297 297 297 297 298
313 313 313 313 313 313 314 314 313 312 312 313 313 313 312 314 315 313 311 312 313 312 312 311 310 309 308 306 304 305 305 305 305 304 304 302 302 302 300 297 297 296 296 296 296 296 297 301 304 304 303 301 299 299 298 296 294 295 295 295 295 295 295 295 295 295 295 295 295 295 295 295 296 295 294 295 295 295 295 295 295 296 296 296 296 297 297 297 297 297 297 297 297 297 297 297 298
312 313 313 313 314 314 313 312 312 311 311 312 311 311 311 312 313 311 310 312 313 312 313 312 310 309 308 307 305 304 304 305 304 304 303 302 302 302 301 299 298 297 296 296 296 296 296 298 301 302 302 300 298 298 296 295 295 296 295 295 294 294 295 295 295 295 295 295 295 295 295 295 295 294 295 295 295 295 295 295 296 296 296 296 296 297 297 297 297 297 297 297 297 297 297 297 297
311 313 312 313 313 313 312 311 311 311 310 311 311 310 310 312 311 310 310 311 312 311 311 311 311 309 308 307 306 304 304 305 304 304 303 302 303 303 302 300 299 299 298 297 297 295 295 296 297 298 297 296 295 296 296 295 296 296 295 295 294 294 295 295 295 295 295 295 295 295 295 295 295 295 295 295 295 295 295 295 296 296 296 296 296 296 296 296 296 296 296 296 295 295 296 296 296
312 312 311 313 312 311 311 310 310 309 308 309 310 309 309 311 310 309 310 310 311 309 307 307 308 308 307 306 305 304 303 304 304 303 303 302 302 302 302 301 300 300 298 298 297 295 295 295 295 295 294 294 294 294 294 295 295 294 294 294 294 294 294 295 295 295 295 295 295 295 295 295 295 295 294 294 294 294 294 294 295 295 295 295 295 295 295 294 294 294 294 294 294 294 294 294 294
311 311 312 313 311 311 310 309 308 307 307 308 309 309 308 309 309 309 309 309 308 305 303 303 304 305 305 304 304 304 303 303 303 303 303 302 302 301 300 300 299 299 298 298 297 295 295 294 294 294 294 294 294 294 294 294 294 294 294 294 294 295 295 295 295 295 295 295 295 295 295 295 294 294 294 294 294 294 294 294 294 294 294 294 294 293 293 293 293 293 292 292 292 292 293 293 293
310 311 312 312 310 310 309 307 306 305 307 307 308 308 307 308 308 307 307 306 304 302 302 302 303 303 304 304 303 303 303 303 303 303 303 301 300 299 298 298 298 298 297 297 296 295 294 294 294 294 294 294 294 294 294 294 294 294 294 294 294 295 295 295 295 295 295 295 295 295 294 294 294 294 294 293 293 293 293 293 293 293 293 292 292 292 292 291 291 291 291 291 291 291 291 291 292
309 311 312 310 309 309 308 306 304 304 306 306 306 306 307 308 307 305 305 303 302 301 301 301 302 302 303 303 303 303 302 302 301 301 300 299 298 297 297 297 297 297 297 296 296 295 294 294 294 294 294 294 294 294 294 294 294 294 294 294 295 294 294 294 294 294 294 294 294 293 293 292 292 292 292 291 291 291 291 291 291 291 291 291 291 291 290 290 290 290 290 290 290 290 290 290 290
310 310 312 309 308 308 306 304 304 304 304 304 304 306 306 306 305 305 304 302 301 300 300 300 301 301 301 302 302 302 301 300 300 299 298 298 297 297 297 297 297 297 296 296 295 294 294 294 294 294 294 294 294 294 294 294 294 294 294 294 294 294 293 293 293 293 292 292 292 292 291 291 291 290 290 290 290 290 290 290 290 290 290 290 290 290 290 290 290 290 289 290 290 290 290 290 290
311 311 311 309 308 307 305 305 304 303 304 303 304 306 306 303 304 305 303 301 301 300 300 300 300 300 300 300 300 300 300 299 299 298 298 297 297 297 297 296 296 296 295 295 294 294 294 294 294 294 294 294 294 294 294 294 294 293 293 293 293 293 292 292 292 291 291 291 291 291 291 290 290 290 290 290 290 289 289 290 290 290 290 290 290 290 289 289 289 289 289 289 289 289 289 289 289
310 310 310 309 309 307 305 306 305 304 304 304 305 306 304 303 304 304 302 301 301 300 300 299 299 299 299 298 298 298 298 298 298 298 298 297 297 297 296 296 295 295 294 294 294 294 294 294 294 293 294 293 294 293 293 293 293 293 292 292 292 292 291 291 291 291 291 291 291 291 291 291 290 290 290 289 289 289 289 289 289 290 290 291 290 289 289 289 289 289 289 289 289 289 289 289 289
308 308 309 309 308 307 306 307 305 305 305 304 304 305 304 304 304 303 302 301 301 300 299 299 298 298 298 298 297 297 297 297 297 297 297 297 296 296 295 295 294 294 293 293 293 293 293 293 293 293 293 293 292 292 292 292 292 292 292 291 291 291 291 291 291 291 290 290 291 291 291 290 290 290 289 289 288 288 289 289 289 289 290 290 290 289 289 289 289 289 289 289 289 289 289 289 289
307 307 309 310 309 308 308 307 305 305 305 303 304 305 305 304 302 301 301 301 301 300 299 298 298 297 297 296 296 296 296 296 295 295 295 295 294 294 293 293 293 293 292 292 292 292 292 292 292 292 292 292 292 292 292 292 292 291 291 291 291 290 290 290 291 291 290 290 291 291 290 290 290 289 289 289 288 288 288 288 289 289 290 290 289 289 289 289 289 289 289 289 289 289 289 289 289
308 309 309 310 311 310 308 306 305 305 305 303 304 308 306 302 301 301 300 301 301 300 299 298 297 297 296 296 295 294 294 294 293 293 293 292 292 292 292 291 291 291 291 291 292 292 292 292 292 292 292 292 292 292 291 291 291 291 291 290 290 290 290 290 291 291 291 290 290 290 290 290 289 289 289 288 288 287 287 287 288 289 289 289 288 288 289 289 289 289 289 289 289 289 288 289 289
309 311 311 310 311 310 307 306 306 305 305 303 306 310 306 301 301 300 299 301 301 300 298 298 297 296 296 295 294 293 292 292 291 291 291 291 290 290 290 290 290 291 291 291 292 292 292 292 292 292 292 292 292 291 291 290 290 290 290 290 290 290 291 291 291 291 291 290 290 290 290 289 289 289 288 288 287 287 286 286 286 287 288 287 287 288 288 288 288 289 289 289 288 288 288 288 288
311 312 312 312 311 310 307 306 307 306 305 305 307 309 305 301 300 299 299 300 300 299 298 297 297 296 295 295 293 292 291 291 290 290 289 290 290 290 290 290 290 290 290 290 291 291 291 291 291 291 291 291 291 291 290 290 290 290 290 290 291 291 291 291 291 291 290 290 290 290 290 289 289 288 288 287 286 286 286 285 285 285 286 286 286 286 287 287 288 288 288 288 288 288 288 288 288
312 311 311 311 311 310 309 306 306 306 306 307 307 308 305 301 300 299 299 300 299 299 298 297 297 296 295 294 293 292 291 290 289 289 289 289 289 290 290 290 290 290 290 290 290 291 291 291 291 291 291 290 290 290 290 290 291 291 291 291 291 291 291 291 290 290 290 289 289 289 289 288 288 287 287 286 286 285 285 285 284 284 284 284 284 284 285 286 287 287 287 288 287 287 288 288 288
312 311 310 311 311 310 310 308 307 307 307 308 307 306 302 300 299 299 298 299 299 298 298 297 296 296 294 293 292 291 290 290 289 288 288 288 289 290 290 290 290 290 290 290 290 290 291 290 291 291 291 291 291 291 291 292 292 292 291 291 291 290 289 289 289 289 289 288 287 288 288 287 286 286 286 285 285 285 284 284 283 283 283 283 283 283 283 284 285 286 286 286 286 286 286 286 287
311 311 310 310 310 310 310 309 307 307 308 308 308 305 301 300 299 298 298 298 298 298 297 296 296 295 294 293 292 291 290 289 289 288 288 288 289 289 290 290 290 290 290 290 290 291 291 291 291 292 292 292 292 292 292 292 292 291 291 290 289 288 288 287 287 287 287 286 285 286 286 286 285 285 284 284 284 284 283 283 282 282 282 282 282 282 282 283 284 284 284 284 284 284 284 285 286
309 310 310 310 309 309 309 308 306 307 309 308 306 304 301 299 298 298 298 298 298 297 297 296 295 294 293 292 291 290 290 289 288 288 288 289 289 290 290 290 290 290 290 291 291 291 292 292 292 292 292 292 291 291 291 290 290 290 289 288 288 287 286 285 285 285 285 285 284 283 284 284 284 283 283 283 283 282 282 281 281 281 280 281 281 281 281 282 282 282 282 282 282 283 283 284 285
308 309 310 309 309 309 308 306 306 307 308 307 304 302 300 298 298 298 298 298 298 297 296 296 295 294 293 292 291 290 290 289 289 288 289 289 290 290 290 290 290 291 291 291 292 292 291 291 291 290 290 290 289 289 289 288 288 288 287 287 286 286 285 284 284 284 284 284 282 282 282 282 282 281 281 281 281 281 280 280 280 280 279 280 280 279 280 280 281 281 281 281 281 282 283 283 284
309 309 309 309 309 308 307 306 306 306 306 305 303 301 299 298 297 298 298 298 297 297 296 295 294 294 293 292 291 291 290 290 289 289 289 290 290 290 290 291 291 291 291 291 291 290 290 289 289 289 288 288 288 288 288 287 287 286 286 285 285 284 284 283 282 283 283 282 281 280 280 281 281 280 279 280 279 279 279 279 279 279 279 279 279 279 279 279 279 279 279 280 280 281 281 282 283
309 308 308 309 308 307 307 306 306 306 306 306 304 301 298 297 297 297 297 297 296 296 296 295 295 294 293 292 292 291 291 290 289 289 289 289 290 290 291 291 291 291 290 290 289 289 289 288 288 288 288 287 287 287 287 286 286 285 284 284 283 283 282 281 281 281 281 281 280 280 279 279 280 279 278 278 278 278 278 278 277 277 277 277 278 278 278 278 278 278 278 278 279 279 279 280 281
308 307 307 307 307 306 307 307 306 306 305 305 305 301 299 298 297 296 297 296 295 295 295 295 294 293 293 292 292 292 291 290 290 289 288 289 290 291 291 290 290 289 289 289 288 288 288 287 287 287 287 287 286 286 286 285 285 284 283 282 282 282 281 280 279 279 280 280 280 279 279 278 279 278 278 278 278 277 277 277 276 276 276 276 276 276 276 276 276 276 276 277 277 277 277 278 279
308 307 306 306 305 305 306 306 306 306 304 304 304 303 301 299 298 297 296 296 296 295 295 294 293 293 292 292 292 291 291 290 290 289 289 289 290 290 289 289 289 289 288 288 287 287 287 287 287 287 286 286 286 285 285 284 283 282 282 281 280 279 279 278 278 278 278 278 278 278 278 277 277 277 277 277 277 277 277 276 276 276 275 275 275 275 275 275 275 275 275 276 276 275 276 276 277
307 306 304 304 304 304 305 305 306 306 305 304 305 305 303 300 298 298 297 296 296 295 295 294 294 293 292 292 292 291 291 290 290 289 289 289 289 289 289 288 288 288 287 287 287 287 287 286 286 286 285 285 285 284 284 283 282 281 281 280 279 278 277 276 276 277 277 276 276 276 276 276 275 275 275 276 276 276 276 276 276 275 275 275 275 275 275 275 274 274 274 275 275 275 275 275 275
307 305 303 304 303 304 305 305 305 306 306 305 305 306 304 301 299 298 297 296 295 295 295 294 294 293 293 292 292 291 291 290 290 289 289 289 288 288 288 288 288 287 287 287 287 286 286 286 285 285 285 284 284 283 283 282 281 281 280 278 277 277 276 276 276 276 276 275 275 275 275 275 274 274 274 274 274 274 275 275 275 275 274 274 274 274 274 273 273 273 274 274 274 274 274 274 274
307 305 302 303 303 304 305 304 305 306 305 305 305 305 304 303 300 298 298 297 296 295 295 295 294 293 293 292 291 291 291 290 290 290 289 289 288 288 288 288 287 287 287 286 286 286 285 285 284 284 283 283 283 282 282 281 281 280 278 277 277 276 275 275 275 275 275 275 274 274 274 274 274 274 274 274 273 273 273 273 274 274 274 274 274 273 273 273 273 273 273 273 273 273 273 273 273
306 304 302 302 302 303 304 304 305 305 305 305 304 303 304 303 300 298 299 299 298 296 294 294 294 293 293 292 291 291 290 290 290 290 289 288 288 288 288 287 287 287 287 286 286 285 284 284 283 283 282 282 282 281 281 281 280 278 277 276 276 275 275 274 275 274 274 274 273 273 273 273 273 274 274 273 273 272 272 272 272 272 272 272 272 272 272 272 272 272 272 272 273 273 273 272 272
305 303 303 302 302 303 304 304 305 305 306 305 303 302 303 303 300 299 300 299 298 296 295 294 294 293 293 292 292 291 291 290 290 289 288 287 287 287 287 287 287 286 286 285 285 284 283 283 282 282 281 281 281 281 280 280 278 277 276 275 275 274 274 274 274 274 273 273 273 273 273 273 273 273 273 273 272 272 272 271 271 271 271 271 270 270 271 271 271 271 271 271 272 272 272 272 272
304 304 305 304 303 303 304 304 305 305 306 304 302 302 302 302 301 299 298 297 296 296 296 295 294 294 293 292 292 291 291 290 290 289 289 288 287 286 286 286 286 286 285 285 284 283 283 282 281 281 281 280 280 280 279 278 277 276 275 274 274 273 273 273 273 273 272 272 272 272 272 272 272 273 273 272 272 271 271 271 271 271 271 270 270 270 270 270 270 270 270 270 270 270 271 271 271
304 304 305 305 305 304 304 305 305 305 304 302 302 302 302 303 300 297 296 295 295 296 296 295 294 294 293 292 292 291 291 290 290 289 289 288 288 286 286 286 286 286 285 284 283 282 282 281 281 280 280 279 279 279 278 276 275 275 274 274 273 273 272 272 272 272 271 271 271 271 271 271 271 272 272 271 271 271 270 270 270 270 270 270 270 269 269 269 269 269 269 269 269 269 269 270 270
303 303 304 304 304 304 304 305 304 303 303 302 301 301 302 301 298 296 295 294 295 295 296 295 294 294 293 292 291 291 290 290 290 289 289 288 288 286 286 286 286 285 284 284 283 282 281 280 280 279 278 278 278 277 276 275 275 274 274 273 273 273 272 272 272 271 271 271 271 271 271 271 271 271 271 271 270 270 270 270 270 269 269 269 269 269 269 269 269 269 269 269 269 269 269 269 269
302 302 303 303 303 302 302 303 302 302 302 302 301 301 301 300 296 294 294 294 294 294 294 294 293 293 292 292 291 291 290 290 289 289 288 288 287 286 286 286 285 284 284 283 282 281 280 280 278 277 277 276 275 275 274 273 273 273 272 272 272 272 272 271 271 271 271 270 270 270 270 270 270 270 271 270 270 269 270 270 269 269 269 269 269 268 268 268 268 268 268 268 268 268 268 268 268
302 302 302 303 302 301 301 301 301 301 301 301 301 300 301 301 297 294 294 294 294 294 293 293 293 292 292 292 291 291 290 290 289 288 288 288 287 286 286 285 284 284 283 281 281 280 279 278 277 276 275 274 273 273 272 272 272 272 271 271 271 271 270 270 270 270 270 269 269 269 269 269 269 270 270 270 269 269 269 269 269 269 269 269 269 268 268 268 268 268 268 268 268 268 268 268 268
302 302 301 301 301 301 301 301 301 301 301 302 302 299 299 298 295 293 294 294 293 293 293 293 293 292 292 292 291 291 290 289 289 288 287 287 287 286 285 284 284 283 282 281 280 279 278 277 276 275 274 273 272 272 272 271 271 271 271 270 270 269 269 269 269 269 269 269 268 268 268 268 268 269 269 269 268 268 268 268 268 268 268 268 268 268 268 268 268 267 267 267 267 267 267 267 267
301 300 299 299 300 300 300 300 301 301 300 300 301 299 297 296 295 293 293 293 293 293 293 293 293 292 292 292 292 291 290 289 288 287 287 287 287 285 284 283 282 282 281 280 278 277 277 276 275 274 273 273 272 272 271 271 270 270 270 270 269 269 268 268 268 268 268 268 268 268 268 268 268 268 268 268 267 267 266 266 266 266 266 266 267 267 267 267 267 266 266 266 266 266 266 266 267
299 298 298 299 300 299 300 300 299 299 298 298 299 299 297 298 297 294 294 294 294 294 294 293 293 293 292 292 291 290 290 289 288 287 286 286 285 284 283 282 281 281 280 278 277 276 276 275 274 273 272 272 271 271 271 270 270 270 269 269 269 268 268 268 268 268 268 268 267 267 267 267 267 267 267 267 266 266 266 266 266 265 265 265 265 265 265 265 265 266 265 265 265 265 265 266 266
299 299 299 300 299 299 300 300 297 298 298 297 299 299 298 299 299 296 295 295 295 294 294 294 293 293 292 291 291 290 289 288 287 286 286 285 284 283 281 280 280 279 278 277 276 276 275 274 273 272 272 271 271 271 270 270 270 269 269 269 268 268 268 268 268 268 267 267 267 267 267 267 267 266 266 266 266 266 265 265 265 265 265 265 265 265 265 265 265 265 265 265 265 265 265 265 265
300 300 299 299 299 298 299 299 297 297 297 296 297 298 298 299 298 296 296 295 294 294 293 293 293 292 292 291 290 289 288 288 287 286 285 284 284 282 281 279 279 278 277 276 275 275 274 273 272 272 271 271 270 270 270 269 269 269 269 268 268 268 268 267 267 267 267 267 266 266 266 266 266 266 266 265 265 265 265 265 265 265 265 264 264 264 264 264 265 265 265 265 265 265 265 265 265
298 299 299 299 299 298 298 298 298 297 295 295 296 295 297 298 296 295 295 294 294 293 293 293 292 292 291 290 289 288 288 287 286 285 284 283 283 282 281 279 279 278 277 276 275 274 273 272 272 271 271 270 270 270 269 269 269 268 268 268 268 267 267 267 267 267 266 266 266 266 266 265 265 265 265 265 265 265 265 265 264 264 264 264 264 264 264 264 264 264 264 264 264 264 264 264 264
296 297 298 298 298 298 298 297 298 297 296 295 295 294 296 297 295 294 294 294 294 293 292 292 292 291 290 289 289 288 288 287 286 285 284 283 282 282 281 279 279 278 277 275 274 273 272 272 271 271 271 270 270 269 269 269 268 268 268 268 267 267 267 267 266 266 266 266 266 265 265 265 265 265 265 264 264 264 264 264 264 264 264 263 263 263 263 263 263 263 263 263 263 264 264 264 264
Wind_Speed
1 1 3 4 5 5 7 7 6 5 5 8 7 9 2 4 1 3 4 2 1 3 4 2 3 1 1 2 4 5 5 5 5 3 1 5 6 8 11 15 16 16 18 14 11 11 12 11 8 4 2 2 2 2 2 3 4 4 3 3 3 5 6 6 7 8 8 8 8 9 8 7 7 7 7 9 10 11 11 11 11 10 10 11 11 11 11 10 10 10 10 10 11 11 10 10 10
1 2 3 3 6 7 7 6 5 5 6 8 8 7 2 5 2 4 2 4 3 4 3 3 2 2 1 3 4 5 2 4 4 5 6 7 7 9 12 14 14 17 20 13 11 9 10 10 7 4 3 3 3 4 5 5 5 5 5 5 6 8 9 9 10 10 10 10 10 10 9 9 8 8 8 9 10 11 11 11 10 10 10 10 11 10 11 10 10 10 10 10 10 11 10 10 10
2 3 3 3 7 8 5 5 6 6 7 8 7 3 2 3 4 3 7 7 5 5 3 3 1 2 2 3 2 4 1 4 3 5 6 7 6 10 13 14 14 19 21 11 9 8 9 9 7 5 5 5 5 6 6 6 6 7 7 7 8 10 11 11 11 11 12 12 11 11 11 10 10 9 8 9 10 11 11 11 10 10 10 10 10 10 10 10 10 10 10 10 10 11 10 11 10
2 3 5 6 8 8 5 5 6 7 8 8 6 0 1 3 3 8 9 6 4 4 2 2 2 2 4 4 2 3 0 5 4 2 5 8 5 9 13 15 17 20 19 11 9 9 9 9 7 7 6 6 6 6 7 8 7 8 8 8 10 11 12 12 12 12 12 12 12 12 12 12 11 10 10 10 10 11 11 11 10 10 10 10 10 10 9 10 10 10 9 9 10 10 11 11 10
2 3 5 7 7 4 4 5 5 8 8 7 5 2 3 2 7 7 6 6 3 3 2 2 1 1 4 4 2 3 2 4 3 3 5 7 5 9 14 15 18 21 20 13 12 11 9 9 8 8 7 7 7 7 8 8 8 8 8 10 11 12 12 12 12 12 12 12 11 12 12 12 11 11 10 11 11 11 11 10 10 10 10 10 10 10 9 9 9 9 9 9 9 10 10 10 10
1 3 5 7 7 4 4 6 6 8 8 8 7 1 4 5 6 6 6 5 3 2 2 3 0 1 2 4 3 2 1 2 2 5 6 6 6 10 13 15 18 20 22 16 13 11 9 9 8 9 8 8 8 8 9 8 8 7 8 10 11 11 11 11 11 11 11 11 11 11 12 11 11 11 10 10 11 11 11 11 11 11 10 10 10 10 10 10 9 9 9 9 9 9 10 9 9
2 5 6 6 6 3 6 8 8 8 6 6 7 6 4 6 4 4 4 2 2 3 5 4 1 2 1 2 4 4 6 4 3 5 7 6 8 11 13 16 18 19 19 15 12 11 10 10 10 10 10 10 10 9 9 8 8 7 7 8 8 9 9 8 8 8 7 8 8 9 10 10 10 8 8 8 8 9 10 11 10 11 10 10 10 10 10 9 9 9 9 9 9 9 9 9 10
3 6 4 4 5 4 6 8 9 8 3 1 4 5 4 5 2 1 3 2 2 4 7 7 3 4 1 1 1 3 8 7 4 5 6 6 9 12 15 17 18 18 17 15 13 11 11 11 12 11 11 11 11 10 10 9 8 7 7 7 7 6 6 5 5 5 5 5 5 5 6 6 6 5 5 5 6 7 8 9 10 9 9 9 9 9 8 8 8 8 8 8 8 9 9 10 11
4 6 3 4 6 5 7 8 8 9 7 4 5 2 4 3 2 2 4 3 2 3 6 8 7 3 2 1 0 1 6 9 6 5 6 6 9 13 15 16 17 18 17 16 13 12 13 13 13 13 13 12 12 11 10 9 8 8 7 6 6 5 5 5 4 4 4 4 4 4 4 4 4 4 4 5 5 5 5 7 9 8 7 7 7 7 7 8 8 8 8 8 8 8 9 10 11
7 7 5 4 6 7 8 8 7 9 9 6 7 3 2 2 2 3 6 4 3 3 4 6 7 6 1 1 2 2 5 7 8 7 7 8 10 13 14 15 15 17 17 16 13 13 14 14 15 14 14 13 12 11 10 9 8 7 7 6 6 5 5 4 4 4 3 3 3 3 4 4 4 5 5 5 5 5 5 6 7 8 7 7 7 7 8 8 8 8 8 9 9 9 10 11 11
7 7 5 4 6 7 7 7 7 7 4 2 5 4 0 1 3 4 6 5 4 4 5 6 5 8 6 4 3 4 5 6 9 9 9 10 12 14 14 15 15 16 16 15 14 14 15 15 16 15 15 13 12 11 10 9 8 7 7 6 5 5 5 4 4 3 3 3 3 4 4 4 5 5 6 6 6 6 6 6 7 7 8 8 8 8 9 9 9 9 9 9 9 10 11 11 11
7 5 4 6 6 7 7 7 7 6 5 4 1 3 2 2 3 4 6 6 5 6 7 9 3 4 8 4 4 4 5 8 10 11 12 13 14 15 15 15 15 16 16 16 15 15 16 16 16 15 14 13 12 11 10 8 8 7 6 6 5 5 4 4 4 3 3 3 4 4 4 5 6 6 7 7 7 7 7 8 8 9 10 10 10 10 11 11 11 11 11 11 11 11 11 11 11
7 4 4 6 6 7 7 7 7 7 7 3 5 7 2 3 3 3 4 5 6 6 7 10 3 2 5 3 6 4 7 11 11 13 13 14 17 17 16 16 17 17 17 17 16 15 16 14 15 15 14 12 11 10 9 8 7 6 6 5 5 4 4 3 3 2 2 3 4 4 5 6 7 7 8 8 8 8 8 9 10 11 12 12 13 12 13 13 14 14 13 14 13 13 13 13 13
7 6 5 6 6 7 7 8 6 7 4 6 8 5 2 1 2 3 4 5 4 3 4 9 5 4 5 3 8 8 10 12 12 14 15 16 18 18 18 18 18 19 18 18 17 16 15 13 13 13 11 10 8 7 7 6 6 5 5 5 5 4 3 3 1 1 1 2 4 5 6 7 8 9 10 11 11 11 10 10 11 12 14 15 15 14 15 16 17 17 16 16 15 15 16 16 16
8 6 5 6 6 7 6 7 6 7 3 8 6 3 2 1 1 1 4 5 2 4 3 6 7 3 3 2 6 10 11 12 14 16 16 16 18 19 19 19 19 19 19 19 18 16 15 12 12 11 10 7 5 4 3 4 4 4 4 4 4 3 3 2 1 1 2 3 4 5 7 8 10 11 12 13 13 14 14 13 13 14 15 16 17 16 16 17 19 19 19 19 18 17 18 18 18
8 6 5 6 7 7 4 4 4 5 3 8 5 2 1 3 2 2 3 3 1 3 4 3 7 3 5 5 6 9 10 12 16 17 16 17 19 20 19 19 19 19 20 20 19 17 14 11 10 10 9 8 7 5 3 3 3 4 4 3 3 3 2 2 2 3 4 5 6 7 8 11 12 13 15 16 17 18 18 18 18 17 17 17 18 17 17 17 19 20 20 20 20 18 18 18 18
7 6 6 6 7 7 3 3 3 3 4 6 6 2 3 1 3 2 2 4 3 3 4 3 6 4 2 2 5 7 9 12 16 16 15 17 19 20 19 19 20 20 21 20 19 17 15 11 9 8 8 8 8 7 5 4 3 3 2 2 2 3 3 3 4 5 6 7 8 9 11 12 12 14 17 19 20 22 22 21 20 19 18 18 17 17 16 16 17 18 18 19 20 19 18 19 18
6 5 6 6 7 5 3 4 5 6 7 4 5 3 6 3 2 0 2 5 5 3 5 5 4 6 6 4 5 5 10 13 15 16 16 18 19 20 19 19 19 19 21 20 18 17 15 12 9 7 6 6 6 5 5 4 3 2 2 3 4 5 5 5 6 6 7 9 10 11 12 12 12 14 18 20 21 23 23 22 22 21 20 19 18 17 16 16 16 17 17 18 19 19 18 19 19
7 5 5 7 6 4 6 6 6 6 6 6 3 2 3 4 3 1 3 2 5 5 6 7 6 8 9 7 6 6 10 13 15 16 16 17 17 17 17 16 16 16 18 18 17 17 15 12 10 7 6 7 5 4 4 3 3 3 4 5 6 7 7 7 8 8 9 10 10 11 11 12 14 17 19 21 21 22 23 23 22 22 21 20 19 19 19 18 17 17 17 17 18 19 19 19 20
7 5 6 5 4 5 3 4 4 4 5 7 4 1 2 2 2 1 4 5 5 1 4 2 1 4 8 7 8 7 10 13 15 14 14 14 13 13 12 13 13 12 14 13 14 17 15 11 10 9 8 7 5 5 4 3 5 5 6 7 7 8 9 9 10 10 10 11 11 12 12 14 16 17 20 21 22 22 22 23 24 24 24 23 23 22 21 21 20 20 19 18 19 19 19 19 20
3 4 7 3 4 5 1 2 2 2 3 6 3 1 3 1 0 2 4 7 2 7 13 10 10 7 6 3 5 8 10 12 14 12 12 11 10 10 9 10 11 10 12 11 10 15 15 11 9 8 8 7 6 6 4 5 7 6 7 8 8 9 10 10 10 11 11 11 12 13 14 16 17 17 19 20 20 20 21 21 22 23 24 25 26 25 23 23 23 23 23 23 22 22 22 20 20
4 7 10 6 4 6 1 3 1 1 2 4 3 2 1 1 0 2 4 5 5 9 12 10 10 8 6 3 2 5 8 10 11 10 10 10 9 9 8 10 11 11 12 10 8 12 13 11 9 8 8 8 8 7 6 7 8 8 9 9 8 9 9 8 8 10 11 11 12 14 14 15 16 15 16 19 19 20 20 20 21 22 24 24 24 24 23 23 23 22 23 24 23 24 24 23 22
6 8 8 5 4 5 2 2 1 1 2 3 2 2 3 2 1 6 8 9 10 11 11 10 7 6 5 3 4 5 8 8 9 8 9 9 9 9 9 9 8 9 9 8 6 8 10 10 10 10 9 10 9 8 8 9 9 8 8 8 7 6 5 6 7 8 10 11 12 13 13 13 14 13 15 18 19 19 20 21 22 22 23 23 21 21 22 22 22 21 22 23 24 24 25 26 26
7 7 5 3 2 4 1 1 1 1 2 2 3 4 3 3 2 7 10 13 13 12 11 9 5 5 5 7 8 9 9 10 10 10 10 10 10 9 9 9 8 8 8 6 5 6 9 9 8 9 9 9 8 6 5 5 5 3 3 3 3 2 3 5 6 7 9 11 11 11 11 12 12 13 15 17 18 19 19 21 21 20 21 20 19 20 20 21 21 22 22 23 24 24 25 27 27
9 8 5 2 2 3 0 1 1 0 2 2 2 4 1 4 3 7 13 15 14 13 11 11 10 10 11 12 12 12 12 12 12 11 10 9 8 8 9 10 10 9 8 6 5 4 3 3 3 2 2 2 0 1 2 2 2 2 3 3 4 5 6 8 8 8 9 11 12 12 12 12 13 14 15 16 17 18 19 20 20 20 20 19 18 20 20 21 23 23 23 24 24 25 26 26 27
6 6 3 3 3 2 1 0 1 1 1 1 2 3 4 5 3 9 16 16 13 12 13 14 15 17 16 16 16 15 14 14 12 12 11 11 11 12 14 14 14 13 11 9 8 9 10 9 8 8 8 8 8 8 8 8 7 7 8 8 9 9 10 10 10 10 11 12 13 13 13 14 16 16 17 18 19 20 20 20 20 19 19 16 17 21 22 23 25 24 24 25 24 25 25 26 27
1 4 4 6 5 2 1 1 2 2 2 2 3 0 6 5 3 7 15 15 12 13 15 17 18 20 19 18 18 17 17 16 15 14 15 15 16 17 18 17 18 18 17 16 15 16 15 14 14 13 13 12 11 11 11 11 10 10 11 11 10 10 10 10 11 12 14 14 15 16 16 17 19 20 21 22 22 23 21 21 21 20 18 15 17 22 25 26 26 26 26 26 27 27 26 26 27
2 4 6 8 5 2 1 1 1 2 2 2 2 3 7 6 7 9 15 13 9 13 16 18 19 20 20 21 21 20 20 19 18 19 19 19 19 19 20 18 18 18 18 18 18 17 16 16 15 15 14 14 13 12 12 12 11 11 11 11 10 11 11 12 13 15 16 18 18 19 20 21 22 23 24 24 25 24 22 23 23 21 19 16 19 25 28 29 27 25 25 27 28 27 27 27 27
3 4 6 7 6 4 1 2 1 1 2 3 3 4 7 8 10 12 15 11 8 13 15 17 19 20 21 22 23 23 22 21 21 22 22 22 21 21 22 20 18 18 18 18 18 18 17 17 16 15 15 15 15 14 13 12 11 11 11 11 11 12 13 14 16 18 19 20 22 23 23 24 26 26 27 27 26 25 24 24 23 21 18 17 24 28 28 27 25 24 25 26 25 25 27 27 25
4 4 4 6 6 5 4 3 3 2 2 3 4 1 6 9 13 15 16 11 8 13 15 16 18 19 21 22 24 25 24 23 24 24 23 23 23 23 23 22 21 21 20 19 18 18 18 18 17 16 15 14 14 13 13 13 12 11 11 12 13 14 15 17 19 20 21 22 24 26 26 27 28 29 30 30 28 27 26 25 23 22 20 23 28 28 26 26 26 25 23 23 24 27 29 28 27
3 3 3 4 5 2 6 3 1 3 2 3 4 2 5 9 14 17 16 10 11 14 16 17 18 19 20 22 24 25 25 25 25 25 23 23 23 24 24 23 23 22 21 19 18 17 17 17 16 15 14 13 12 11 12 12 13 13 13 14 15 17 17 19 21 22 24 25 26 28 28 29 31 32 32 32 30 28 27 26 25 24 26 29 30 28 27 28 26 22 21 25 28 29 28 28 29
3 2 2 3 2 2 7 5 6 5 2 2 4 2 6 10 15 17 15 11 14 16 17 18 19 19 20 21 23 24 25 25 25 25 24 25 25 25 24 23 23 22 21 20 18 17 16 16 15 14 13 13 12 12 12 12 13 14 15 16 18 20 21 22 25 26 27 28 30 30 31 32 34 34 34 33 31 29 27 27 26 27 30 31 30 29 29 28 25 24 24 26 28 27 26 27 29
4 3 4 2 2 2 3 6 9 7 4 0 2 2 5 8 14 17 16 13 15 17 18 18 19 19 19 20 21 22 23 24 26 25 25 25 25 25 24 23 22 21 20 19 17 16 15 14 13 13 13 13 13 12 13 13 14 16 18 19 21 24 26 27 28 30 30 31 33 34 34 35 36 35 34 33 31 29 28 27 26 28 30 30 29 29 28 26 24 25 25 25 26 28 28 28 28
1 1 5 4 3 4 2 4 7 8 5 2 2 6 8 9 13 17 16 15 16 17 18 18 18 19 19 20 20 21 22 23 24 23 23 24 24 23 23 22 21 20 18 17 16 15 15 14 13 13 13 14 14 15 15 16 18 20 22 25 26 28 31 32 33 34 34 35 35 37 37 35 35 34 33 32 30 28 28 27 26 27 29 29 28 27 26 24 23 24 26 27 28 29 29 29 29
5 5 6 5 3 5 2 3 7 9 4 3 4 9 11 11 13 16 16 15 17 17 17 17 18 18 19 19 20 21 22 23 21 20 21 22 22 22 21 19 18 18 17 16 15 14 14 15 15 15 16 17 19 20 21 23 24 26 27 29 31 32 34 35 36 36 36 36 35 37 37 35 34 32 31 30 29 28 27 26 25 26 27 27 26 25 23 23 23 25 28 29 29 29 29 29 28
8 7 6 6 6 4 4 6 6 7 4 3 8 9 10 12 12 14 15 15 16 16 16 16 17 18 18 19 19 20 21 21 20 20 21 21 20 20 19 18 16 16 15 15 14 15 16 18 19 20 22 23 25 26 28 29 31 31 32 33 34 35 36 36 36 36 36 35 33 35 35 34 32 31 30 29 27 27 26 25 24 25 26 26 25 24 22 23 25 27 28 28 29 28 26 24 22
6 6 6 6 6 2 6 6 3 4 4 5 12 11 11 12 11 12 13 14 15 15 16 16 16 17 18 18 19 19 20 19 18 18 19 19 18 17 16 16 15 15 16 16 17 19 21 23 25 26 28 29 30 31 31 32 33 34 35 36 37 37 37 36 35 36 35 34 32 32 33 32 31 30 29 29 27 26 26 25 25 25 26 26 25 23 22 23 25 26 27 28 27 25 24 22 19
5 4 5 4 3 3 5 4 3 2 4 5 13 12 12 12 10 12 13 14 14 14 15 15 16 16 16 17 17 17 17 16 16 16 16 16 15 15 15 16 17 17 19 20 22 24 26 27 29 29 30 30 30 30 30 31 32 34 36 36 37 37 36 35 34 34 34 33 31 30 31 31 29 28 28 29 27 26 27 26 25 25 25 26 25 23 22 22 24 25 26 27 26 25 25 23 19
4 3 5 3 4 5 2 5 3 3 4 3 11 11 10 11 11 12 14 14 14 15 15 14 15 15 15 15 15 15 15 14 14 14 14 14 14 15 16 18 19 20 22 23 25 27 29 29 29 29 29 29 29 29 29 30 32 34 36 36 37 36 35 34 33 33 32 31 30 29 30 30 30 27 26 28 27 26 26 26 26 25 25 25 25 24 22 22 22 23 25 26 26 26 25 23 19
1 4 4 3 6 6 1 2 2 4 2 1 7 10 7 9 10 11 13 14 15 15 15 14 13 14 14 13 13 13 13 12 12 13 13 13 15 16 18 20 21 22 24 26 28 29 29 29 28 27 28 28 29 29 30 31 33 36 38 38 38 37 35 33 32 32 32 31 31 30 29 30 30 28 27 27 26 25 25 25 26 26 25 25 25 24 23 21 21 23 25 26 26 26 26 25 22
4 6 5 5 6 7 5 5 7 2 3 1 3 7 6 6 8 8 10 12 13 13 13 13 12 12 12 12 12 12 11 11 11 11 12 13 16 18 19 21 22 24 26 27 28 28 28 27 27 27 27 28 29 30 31 34 36 38 40 41 40 38 35 32 31 32 33 32 31 31 30 29 29 29 28 28 27 26 25 25 25 26 25 25 25 25 24 22 22 24 26 27 27 26 27 28 27
2 4 5 6 7 8 9 9 8 3 4 2 4 2 3 6 7 7 7 8 10 10 10 11 11 10 10 10 11 10 10 10 10 10 10 12 15 17 19 21 23 25 26 26 26 26 26 26 26 26 27 28 29 31 32 35 38 39 41 41 38 35 33 30 30 32 32 32 31 31 30 27 27 27 25 26 28 28 28 26 25 25 25 25 24 24 24 23 23 25 27 28 27 26 27 28 27
3 2 2 6 7 8 9 8 6 3 2 1 3 3 1 5 7 7 7 8 8 8 8 8 8 8 8 8 8 8 8 8 8 8 9 10 13 17 20 22 24 25 25 24 24 24 25 25 26 26 27 28 29 31 33 36 38 40 40 38 34 31 30 29 29 31 31 30 29 30 29 26 25 23 20 23 28 30 30 29 27 26 26 26 25 25 24 23 23 26 27 27 27 26 25 25 25
3 2 3 7 7 8 7 6 5 2 1 2 2 5 2 3 6 6 7 8 8 6 6 6 6 6 7 7 7 7 7 6 6 6 7 9 13 17 20 22 23 24 24 24 24 24 24 24 25 26 28 29 30 32 34 37 39 40 38 34 31 29 28 28 29 29 29 28 28 28 27 26 23 18 17 21 26 29 30 30 30 30 29 28 27 26 25 25 26 27 27 27 26 26 25 24 25
2 3 5 6 6 7 6 6 4 1 2 3 6 8 5 2 6 6 6 6 7 6 4 3 4 5 5 6 6 6 5 5 5 5 5 7 12 17 20 22 23 24 24 24 23 23 23 23 25 26 28 30 31 33 36 38 39 37 34 30 29 28 26 28 28 28 27 27 26 26 25 24 21 16 16 19 22 25 27 30 32 32 32 31 29 28 27 27 28 28 29 29 28 27 26 25 25
5 6 6 5 5 6 6 5 3 2 3 1 8 8 5 3 5 3 2 4 6 4 3 3 3 4 4 4 4 3 3 3 4 5 5 6 9 16 22 23 24 24 24 24 23 23 22 23 25 27 29 31 33 36 38 39 38 34 30 27 27 27 26 27 27 27 26 25 25 25 23 23 20 18 17 16 19 23 26 30 32 33 33 32 30 28 28 27 27 29 30 31 30 29 27 25 24
9 9 7 7 5 5 5 3 3 3 1 4 7 8 6 1 5 5 3 4 5 3 0 3 3 3 3 2 2 2 3 3 4 5 6 8 7 13 22 24 24 25 24 23 23 23 23 23 26 28 30 33 36 37 39 38 35 31 27 25 25 25 25 26 26 26 26 25 25 24 23 23 20 18 17 17 19 23 27 31 33 34 34 33 31 30 30 29 29 30 31 31 30 29 28 27 27
7 7 7 5 3 4 4 3 3 3 3 4 6 9 7 1 4 5 4 4 4 3 1 3 4 3 3 2 0 2 4 4 6 7 9 11 9 11 20 24 24 24 24 24 23 23 24 25 28 30 32 35 37 39 38 35 32 28 25 25 24 24 24 25 25 25 24 23 22 23 25 24 21 19 19 20 22 25 30 33 34 35 34 34 34 33 33 32 32 32 31 31 30 28 28 28 27
6 6 8 7 3 2 2 2 2 4 3 5 7 8 4 3 5 4 4 5 4 3 2 3 4 4 4 2 2 3 5 5 8 9 11 13 10 11 19 24 23 24 23 24 23 23 25 27 30 32 33 35 37 37 33 30 28 25 23 23 24 24 24 24 24 24 23 22 21 23 26 25 22 21 20 22 26 29 32 34 34 34 34 34 35 34 35 34 34 33 32 32 31 30 29 27 27
9 8 8 6 5 5 4 4 5 4 2 4 5 5 2 3 4 3 3 4 3 4 4 4 5 4 4 3 3 4 6 8 9 10 13 13 10 13 20 23 23 23 23 23 23 23 26 29 31 31 32 34 34 33 29 26 24 20 20 22 23 23 22 23 23 23 23 23 22 23 24 23 22 20 20 23 28 31 33 34 34 34 34 35 34 35 35 35 34 34 33 33 32 31 30 29 29
6 6 6 5 5 4 4 5 5 5 6 5 3 2 3 2 3 4 4 4 4 4 4 4 4 4 4 4 5 6 8 10 10 12 14 13 12 17 22 23 23 23 22 22 23 25 28 31 31 28 29 31 30 30 28 26 23 17 16 20 23 23 22 22 22 22 22 23 23 22 23 23 21 20 20 22 26 32 35 35 35 34 34 34 34 35 35 35 34 34 34 34 33 32 31 31 31
4 5 5 5 4 4 5 5 4 5 6 3 0 2 3 3 4 5 4 4 4 4 4 4 4 4 4 6 7 9 10 11 12 13 15 13 15 19 22 23 23 22 21 21 23 27 29 32 32 28 28 30 29 29 28 25 22 17 16 20 23 23 22 22 22 22 23 23 22 21 22 22 21 21 20 21 26 32 35 35 35 35 34 34 35 35 35 35 35 34 35 35 34 33 32 32 32
4 5 5 5 4 4 5 4 3 4 5 2 1 2 2 3 4 5 6 5 4 3 3 4 5 6 7 9 10 10 11 12 13 15 15 14 16 19 21 22 21 20 20 21 24 27 29 31 31 29 29 29 28 28 27 25 23 19 19 21 23 23 23 23 23 24 24 23 22 22 22 23 22 21 21 23 28 32 33 34 33 33 34 34 34 34 34 34 35 35 34 33 34 33 32 33 32
5 4 6 6 3 3 3 3 3 4 5 4 3 2 2 2 1 5 7 4 2 3 5 6 7 9 10 11 12 13 14 15 16 16 15 13 13 16 18 19 18 19 19 21 24 27 29 32 31 29 28 27 27 27 26 24 22 20 21 22 23 23 23 23 24 24 24 24 24 24 23 23 23 23 24 27 30 31 30 30 29 30 31 31 30 31 32 32 31 33 31 29 30 29 29 30 29
5 2 6 5 1 2 3 3 4 5 6 6 3 3 4 3 1 5 5 2 1 2 5 7 9 11 12 13 14 15 16 16 17 18 17 15 12 10 11 12 15 16 17 19 23 26 29 31 31 27 26 25 25 25 24 23 20 19 21 23 23 23 24 24 24 24 25 26 26 25 24 24 24 25 27 29 29 28 28 27 26 27 27 27 28 28 28 27 26 27 28 27 28 26 25 28 28
4 2 4 3 2 3 3 2 3 4 5 6 5 5 3 1 3 3 3 1 1 3 4 7 10 12 12 15 17 17 17 17 19 20 18 17 14 10 9 9 11 14 15 16 19 23 28 31 29 26 24 24 23 23 23 22 20 19 22 23 23 23 24 24 23 23 25 26 25 24 23 23 24 26 27 28 28 27 26 25 25 25 26 27 28 27 26 26 26 26 27 27 27 26 25 26 27
5 4 4 5 3 1 1 1 1 3 5 5 6 7 3 3 4 3 3 1 2 2 4 7 11 13 14 16 17 18 18 19 20 21 19 16 13 10 10 10 12 14 16 15 17 24 30 30 28 26 25 24 24 24 24 23 21 21 22 23 24 24 25 24 23 25 26 25 23 23 24 25 25 26 27 27 27 26 24 25 25 25 26 27 27 27 26 26 26 27 27 27 28 28 28 28 27
6 5 4 4 4 2 3 2 2 1 4 4 5 8 4 2 3 2 1 1 2 3 4 8 12 14 15 16 17 19 22 23 22 22 19 16 13 11 11 12 14 17 17 16 20 26 29 29 28 27 25 24 25 26 25 23 23 22 23 24 25 25 25 25 25 26 26 25 24 24 25 26 26 26 27 28 28 26 25 25 26 26 26 26 26 25 25 24 24 25 26 27 28 28 31 32 30
Wind_Direction
297 180 168 185 179 182 212 217 239 217 233 256 249 260 232 89 82 242 243 144 177 84 68 90 91 157 172 347 354 353 1 356 359 342 20 126 179 162 158 162 172 178 150 160 176 182 195 184 180 187 208 219 235 207 201 200 195 185 166 150 113 91 91 86 83 77 76 76 71 76 76 76 71 69 69 59 53 50 48 48 50 47 45 43 41 41 40 40 38 37 36 33 33 27 12 14 27
159 160 164 172 177 212 220 199 252 238 229 250 246 258 125 106 219 257 299 59 53 80 98 109 107 169 189 350 336 302 20 50 49 75 118 138 160 153 161 169 173 164 147 170 194 177 173 174 178 174 192 198 203 189 185 185 172 157 141 122 104 90 89 85 83 81 78 77 73 75 74 74 71 66 67 60 53 50 49 48 48 46 44 42 40 39 38 38 38 36 34 33 31 30 19 10 25
165 161 171 190 192 222 237 195 246 251 241 256 258 261 120 245 278 35 59 59 65 91 103 108 153 174 221 272 299 286 61 84 81 91 124 131 151 165 167 166 169 163 150 170 194 170 160 167 170 170 188 182 179 176 169 163 145 138 132 114 102 91 89 87 85 84 81 78 74 73 71 70 69 63 63 60 53 51 50 48 47 45 43 41 39 37 36 35 34 34 31 31 29 31 23 9 22
175 173 182 224 215 215 236 224 241 257 254 261 270 309 118 280 38 67 73 74 83 105 120 147 203 174 228 265 4 293 158 103 122 115 133 140 166 178 171 166 171 161 148 164 167 151 159 161 165 173 179 169 168 166 158 151 141 145 134 105 96 93 90 88 86 85 82 79 75 73 71 68 66 63 62 59 54 53 51 48 47 45 44 41 39 36 35 34 32 33 29 28 26 26 25 14 18
173 189 192 235 240 230 249 242 246 250 252 261 276 68 86 43 70 72 79 88 104 122 135 197 223 144 227 258 343 317 56 83 154 160 148 167 183 177 178 171 172 160 149 163 157 150 160 159 168 175 172 167 166 165 165 153 139 144 126 100 94 93 90 88 86 84 81 79 76 73 71 68 65 62 61 59 55 54 51 49 47 46 45 41 39 38 36 35 32 31 27 26 24 22 23 18 16
168 230 209 234 261 303 271 245 247 248 254 261 266 286 74 68 69 75 92 95 114 140 173 200 261 30 237 226 226 277 89 88 139 163 168 189 185 179 184 172 170 163 160 165 152 152 164 170 177 173 171 170 169 167 163 153 142 136 114 100 96 93 90 88 86 83 81 77 74 72 70 67 65 62 59 58 55 53 50 48 46 44 43 41 39 38 37 34 32 29 27 24 21 20 18 16 18
190 233 214 224 245 253 254 253 251 258 265 264 267 286 26 71 78 100 130 138 147 188 212 194 194 274 241 173 196 234 226 184 146 185 188 192 185 181 180 172 167 164 168 162 146 159 174 179 177 170 170 166 164 164 157 151 148 136 115 107 102 97 94 91 89 85 80 75 71 69 67 64 62 57 50 49 50 50 48 45 44 42 39 38 36 35 33 31 30 27 24 22 19 18 11 8 13
209 246 231 246 243 210 245 258 256 262 259 342 295 300 30 82 105 169 199 207 177 179 198 189 186 239 232 126 193 227 231 217 205 201 189 189 182 178 174 172 167 165 165 152 153 171 176 175 169 165 164 162 160 161 158 151 143 132 120 114 109 103 99 93 89 82 74 68 64 61 60 57 52 43 34 34 35 39 44 42 40 38 36 34 32 28 25 22 21 20 19 18 14 10 5 6 7
229 248 240 253 257 238 243 253 258 263 256 277 284 258 92 124 154 257 252 230 185 166 185 183 187 215 61 164 170 71 230 222 215 203 193 191 178 179 174 171 170 170 164 158 169 173 171 169 163 162 160 161 159 157 154 145 137 127 120 114 109 102 96 90 81 72 62 53 48 44 39 34 25 18 14 14 11 15 26 34 36 31 25 24 24 20 15 14 12 11 11 10 8 3 4 6 1
224 224 245 253 250 254 249 253 255 258 262 283 288 264 116 148 200 253 265 260 202 176 157 155 194 227 345 235 160 132 227 215 214 210 198 194 180 181 175 172 176 175 169 166 169 168 172 169 161 162 160 159 156 152 146 138 131 121 116 108 103 99 93 85 76 62 53 40 32 24 16 10 2 358 355 356 355 355 354 6 23 22 15 12 12 9 6 8 6 6 5 3 2 358 0 1 355
228 208 245 264 240 250 252 260 260 257 262 269 275 263 180 164 229 240 246 257 209 180 149 147 208 230 240 250 160 187 228 199 203 204 196 192 180 180 177 177 180 178 173 166 163 170 175 169 165 163 160 158 152 148 141 135 128 121 114 108 103 98 93 81 73 58 47 32 21 12 3 355 348 344 341 342 343 344 341 341 350 356 355 353 355 350 348 352 350 351 351 350 350 348 352 353 349
243 204 208 248 245 254 257 269 278 287 298 273 265 88 71 182 215 244 233 237 208 196 180 182 197 206 227 228 152 198 206 185 191 193 191 186 177 179 180 180 182 177 174 168 166 174 176 170 168 164 162 159 153 149 141 136 129 124 119 114 112 104 100 87 74 58 42 23 11 0 351 345 340 336 333 333 333 333 333 330 328 329 331 331 335 334 331 332 331 335 336 334 337 340 342 342 341
246 242 220 242 251 261 270 279 284 289 290 312 65 79 76 195 211 279 262 234 208 210 189 188 193 221 233 149 133 167 179 187 190 185 182 179 177 179 181 181 179 175 175 170 165 168 171 170 169 167 165 160 155 152 144 141 135 132 129 125 124 120 116 105 93 64 38 9 357 345 341 336 333 332 329 328 327 328 327 325 323 320 319 320 323 324 322 321 322 325 325 325 329 332 331 332 332
248 258 254 255 256 263 274 273 279 285 283 77 72 80 106 175 263 312 287 253 199 169 154 174 201 243 246 161 141 150 172 190 185 177 175 177 179 180 183 183 180 178 176 170 167 167 164 164 169 169 161 157 159 151 148 149 146 142 141 139 137 139 139 133 135 82 349 333 336 332 331 329 328 328 327 326 324 324 323 322 320 317 315 314 315 317 317 316 317 319 319 319 322 324 323 325 325
256 265 264 259 264 264 258 257 279 285 303 73 75 74 119 188 315 315 275 279 77 113 157 177 202 230 309 358 128 151 184 190 179 178 177 180 181 182 185 185 184 178 174 172 172 170 163 162 168 166 154 156 163 151 167 165 157 158 151 152 153 157 165 178 225 270 295 305 311 316 318 318 320 320 321 321 320 321 322 322 320 318 315 313 313 314 314 313 312 313 314 314 316 318 317 317 318
254 272 258 251 262 263 245 236 264 270 347 69 99 92 193 173 139 262 248 264 24 174 217 196 199 224 15 43 122 166 194 183 179 183 181 183 183 184 185 184 184 177 175 176 174 170 163 160 163 164 156 161 164 159 191 190 174 172 166 168 175 188 199 233 258 272 287 292 298 307 311 315 318 319 321 321 322 323 325 326 326 324 321 318 316 316 315 312 310 309 311 311 313 315 313 312 311
242 255 248 249 254 259 263 246 283 315 355 66 106 60 315 148 136 243 251 229 243 204 213 199 191 214 344 112 155 176 180 178 183 184 181 184 184 184 182 181 184 182 180 178 176 175 169 161 162 170 168 172 174 168 185 206 204 184 186 207 217 227 237 256 270 285 297 302 307 312 315 321 324 321 321 322 324 325 326 327 327 326 324 322 319 318 316 312 310 309 310 311 312 314 313 311 310
219 230 241 252 256 275 353 330 348 342 330 23 64 27 323 329 101 237 289 217 210 223 212 204 205 216 239 209 171 167 171 179 183 184 186 186 184 181 179 181 183 184 183 181 181 182 177 171 167 170 176 187 190 189 207 223 233 233 252 262 265 264 265 279 292 301 307 311 313 316 322 323 317 316 315 319 322 322 322 323 324 323 321 320 318 317 314 311 311 310 312 313 313 314 314 314 313
227 242 247 255 273 338 18 351 349 338 326 342 356 18 314 325 29 315 284 224 195 239 219 196 211 212 230 228 197 181 172 180 182 186 189 184 180 176 175 178 178 183 185 185 188 188 186 182 176 173 184 196 199 217 233 245 265 268 275 277 283 291 293 299 304 304 307 309 310 315 319 313 310 312 312 314 318 318 319 319 319 319 318 318 317 317 313 310 311 311 311 313 313 313 315 316 315
234 243 255 263 322 338 359 348 340 349 323 307 308 45 286 295 0 261 293 295 214 312 33 138 258 187 198 220 214 193 174 181 180 180 182 176 171 169 171 176 172 176 182 184 194 197 194 190 190 195 207 214 217 228 242 266 265 266 284 289 297 304 303 305 305 303 303 304 306 310 308 305 308 311 311 314 318 319 320 320 320 321 320 319 318 318 317 316 317 317 316 316 316 316 317 316 315
224 221 258 293 8 314 344 60 336 356 302 295 303 270 265 203 263 264 297 301 232 36 24 24 18 52 131 187 228 202 181 181 175 171 171 164 159 159 161 166 163 168 176 174 191 205 203 200 204 216 228 236 240 244 259 271 267 280 294 294 301 303 302 304 305 302 299 300 301 303 304 306 311 315 314 316 319 320 321 320 321 321 319 318 318 318 319 320 321 323 322 323 324 321 319 317 315
245 233 254 281 311 291 32 74 329 306 258 273 263 270 345 93 120 341 333 340 20 14 353 353 12 35 71 94 198 185 173 170 165 162 161 155 146 143 141 149 160 172 175 169 183 207 210 212 220 227 242 249 249 253 265 275 278 290 290 289 298 297 299 300 299 299 298 299 301 304 311 315 320 323 320 319 321 321 321 319 318 316 314 315 316 316 318 319 321 324 323 323 324 322 320 320 319
249 244 244 259 264 274 8 66 256 209 254 265 276 342 0 292 63 57 34 20 12 -0 341 326 315 324 0 77 119 136 148 146 143 140 140 138 126 120 123 132 152 166 164 168 179 203 211 219 233 236 248 254 258 264 272 281 284 288 288 289 291 288 298 301 302 310 310 309 313 316 322 326 328 328 324 324 325 325 323 319 318 316 314 315 316 316 318 321 324 325 323 322 323 323 322 322 322
240 262 247 227 236 263 338 74 254 221 268 307 357 331 312 308 33 62 39 23 10 6 4 355 341 341 30 86 98 108 117 118 118 117 119 121 122 121 117 113 113 122 126 139 160 205 219 224 242 247 253 259 267 275 275 282 285 287 298 304 305 316 338 342 341 345 340 331 331 333 336 340 341 338 334 334 332 330 327 323 324 323 321 323 320 320 323 323 325 324 322 322 322 322 321 322 322
224 261 266 216 235 253 114 107 244 180 267 300 330 283 342 44 55 60 33 20 15 19 28 37 51 60 72 80 85 96 97 100 104 103 107 110 117 115 101 94 94 104 117 133 152 176 199 198 210 228 245 254 282 84 96 93 79 76 66 46 36 32 27 22 17 11 2 352 349 347 350 353 352 348 342 341 338 334 333 331 333 331 329 330 323 322 325 323 325 324 322 321 321 321 320 320 319
215 262 287 255 253 187 132 260 188 174 237 192 256 256 85 65 94 66 34 20 21 32 45 52 60 65 69 73 76 83 83 84 87 88 92 90 89 89 85 86 88 90 97 110 113 102 94 98 98 92 94 97 97 95 86 80 75 71 64 57 53 48 40 34 26 15 6 1 2 358 358 359 355 351 345 344 340 337 338 333 333 331 330 329 320 320 322 322 323 322 319 318 318 317 317 317 316
289 284 286 269 261 175 222 281 142 192 192 180 264 316 80 59 74 50 23 17 25 43 53 56 62 65 66 70 72 74 76 75 78 83 84 83 82 83 84 88 91 91 93 97 95 96 100 102 102 97 96 94 94 97 91 84 78 72 66 59 55 50 42 33 23 14 5 358 359 359 355 354 352 349 345 344 340 339 336 330 329 327 325 321 311 314 317 318 320 319 319 317 317 318 317 318 318
331 306 288 263 232 185 254 232 176 217 160 161 238 92 85 61 53 26 9 11 34 54 58 61 64 66 66 67 69 69 70 72 75 78 77 78 79 79 81 84 94 101 102 101 99 103 108 108 109 106 103 97 90 87 85 82 76 69 61 52 45 39 27 19 12 5 2 353 348 350 349 347 345 343 341 340 338 336 330 325 326 323 322 313 302 310 316 317 320 320 318 315 318 319 318 319 318
294 286 288 272 214 176 79 80 127 200 125 132 180 121 92 67 44 20 8 11 51 65 63 66 66 67 68 67 69 67 68 73 74 73 74 75 77 80 80 83 94 102 101 106 113 114 111 106 104 103 104 103 94 82 73 67 63 57 48 38 30 24 13 6 2 357 355 350 343 342 343 341 338 337 336 335 334 331 324 320 319 317 315 302 299 311 315 315 316 314 312 311 312 312 312 313 311
272 245 267 285 237 186 97 92 149 158 121 154 205 180 92 68 38 18 9 13 58 71 67 69 71 70 69 69 69 67 67 72 72 71 77 80 81 86 88 89 96 99 99 107 113 113 109 104 100 98 97 96 93 84 72 59 49 42 33 23 14 11 5 358 354 350 346 344 340 335 336 335 332 332 330 330 330 326 321 317 313 309 302 295 301 309 309 306 308 309 308 304 304 306 307 307 305
247 226 224 261 261 156 102 74 149 132 118 181 244 290 93 62 32 18 11 26 66 74 72 73 75 74 72 72 71 70 69 69 72 74 78 85 88 92 95 95 96 97 98 99 100 101 101 99 94 90 86 81 77 70 62 52 41 29 19 12 5 360 356 350 345 343 340 337 334 330 329 330 327 326 326 325 326 323 319 315 310 304 298 298 303 304 301 302 305 304 298 297 301 304 304 303 302
218 251 248 215 258 110 110 58 31 47 69 191 276 320 101 61 31 22 21 47 75 77 77 76 76 77 75 75 73 72 72 69 71 73 78 86 90 92 95 96 98 97 94 92 91 90 88 86 83 79 74 65 58 51 45 38 29 19 8 0 355 350 344 341 339 336 336 332 328 325 324 325 323 322 322 322 322 321 317 313 309 303 300 302 303 301 301 302 301 298 294 296 299 300 299 298 300
192 237 296 309 317 328 104 72 44 24 18 342 308 18 86 58 32 30 36 55 76 79 78 77 76 77 77 76 76 75 73 70 68 69 75 83 88 91 93 93 93 93 90 87 84 81 76 70 67 62 56 49 42 35 27 19 12 4 356 349 345 343 337 334 334 331 330 329 325 322 321 322 320 320 320 319 320 318 315 313 309 304 302 303 304 302 302 302 300 296 293 293 294 295 296 296 298
170 270 307 317 317 306 303 90 42 10 358 339 73 79 69 57 41 39 46 58 73 77 76 77 77 78 78 77 77 76 73 70 67 67 72 80 85 90 91 89 88 85 81 77 72 66 60 53 46 40 34 29 19 11 5 357 353 350 347 345 341 341 337 332 331 329 327 327 324 320 320 321 319 319 319 318 318 316 313 312 308 304 303 303 304 303 302 301 297 292 289 290 291 293 294 295 296
323 326 319 318 314 303 315 79 20 1 352 349 77 92 70 57 52 49 53 63 73 77 77 79 80 80 81 80 78 77 74 71 69 69 76 82 85 85 84 83 79 75 69 63 58 51 43 35 26 19 12 8 2 355 350 345 343 342 341 341 338 338 337 332 330 328 326 327 325 321 320 321 320 320 319 317 316 314 313 312 308 305 303 303 303 302 302 299 293 290 291 292 293 293 294 296 297
314 313 308 310 307 310 45 66 23 358 340 61 79 82 68 56 53 55 59 68 74 78 80 80 81 81 82 83 81 79 77 75 73 75 81 85 85 83 79 73 67 63 57 48 41 32 26 19 11 5 359 356 352 348 346 344 341 338 337 337 336 335 335 332 329 327 325 326 326 322 321 322 322 321 319 317 316 315 313 312 309 306 304 303 303 302 300 296 293 294 294 294 295 296 296 296 297
310 301 289 291 295 321 61 67 70 6 335 92 91 78 69 60 56 60 61 69 74 76 81 81 83 85 84 85 84 82 81 79 78 78 82 84 82 78 72 65 56 48 40 31 25 19 13 7 2 358 355 351 348 347 346 344 341 338 337 337 335 334 333 331 328 325 324 325 326 324 322 323 323 324 321 318 319 317 314 312 310 307 305 305 304 303 299 295 294 294 294 294 296 295 294 294 297
292 290 289 287 317 353 57 90 137 18 341 108 105 86 74 66 61 66 64 66 68 71 81 85 87 88 87 88 87 86 86 85 80 75 77 78 74 68 60 52 41 32 26 19 14 10 5 1 357 354 352 349 346 345 343 342 341 338 337 335 334 333 332 329 326 324 324 325 326 325 323 323 324 326 323 320 321 319 315 314 312 309 308 306 305 304 300 296 295 295 295 296 296 294 294 295 297
284 310 298 308 8 350 76 133 158 357 335 138 112 91 79 78 70 68 69 69 66 67 77 84 88 90 90 91 91 92 91 86 80 72 69 67 60 53 44 36 28 21 16 11 7 3 359 357 354 350 347 345 343 341 340 340 339 337 335 334 333 333 332 329 326 325 324 324 325 325 325 323 323 326 324 320 320 320 316 315 313 311 309 307 306 305 302 300 299 297 296 297 298 298 297 296 294
332 5 332 343 8 343 315 155 298 0 0 278 106 102 100 95 84 74 75 79 79 75 77 81 84 88 89 91 92 94 92 85 79 72 64 57 47 38 31 23 17 13 8 5 2 358 355 353 350 346 343 342 340 339 339 338 337 337 337 336 336 334 333 331 327 326 325 325 325 324 325 324 323 324 323 319 318 318 316 315 313 311 310 308 307 305 304 303 301 298 297 298 301 302 300 297 292
75 45 8 344 342 325 304 302 311 344 120 187 136 129 121 101 92 90 87 88 88 82 82 84 84 88 92 94 91 87 87 82 76 70 60 48 37 26 19 14 9 6 3 0 357 354 351 347 344 343 340 339 339 339 339 339 339 339 338 338 337 335 334 332 328 327 327 327 327 326 328 327 325 325 323 319 317 316 315 314 312 311 310 308 306 305 304 303 301 298 298 299 302 303 302 299 296
65 66 16 332 318 309 300 307 307 269 151 171 229 214 115 100 90 97 102 90 85 82 83 88 90 97 97 96 93 85 82 77 72 68 56 43 30 16 9 6 3 -0 358 355 352 348 345 342 340 339 339 339 339 339 339 340 340 340 338 338 336 334 333 331 327 327 328 329 329 328 330 330 328 328 325 318 317 317 316 315 313 313 312 310 308 306 305 304 301 298 299 301 302 302 302 301 300
319 62 357 318 310 299 297 308 300 289 60 86 271 308 84 114 91 98 110 95 86 82 84 91 96 102 100 94 93 86 81 75 69 62 50 37 20 7 0 357 356 353 351 349 345 341 339 338 338 338 338 339 339 339 339 339 339 338 337 336 333 331 330 327 326 326 327 328 327 327 330 330 329 329 321 314 316 318 319 317 316 316 316 315 313 312 310 307 302 300 302 303 302 303 303 301 299
334 44 322 312 303 292 298 292 276 308 70 141 31 347 304 122 92 115 124 99 89 84 82 93 101 105 101 93 89 83 78 71 61 50 40 24 3 356 354 350 348 346 343 341 337 337 337 337 338 338 338 338 339 339 338 338 338 337 335 333 330 330 328 325 325 326 327 327 326 327 329 329 330 326 314 313 316 319 320 319 319 321 319 317 317 315 313 310 306 306 305 304 305 305 303 300 298
356 5 316 307 290 281 283 269 263 293 215 165 45 3 318 88 108 154 155 91 72 85 92 100 115 116 106 95 91 84 73 64 52 37 24 5 348 346 347 343 341 338 335 334 333 333 335 336 337 338 338 337 337 338 338 338 337 334 333 330 328 329 326 324 325 326 327 327 326 326 327 327 328 321 313 314 315 318 318 316 319 323 322 322 320 316 314 312 311 310 308 307 306 305 303 302 300
320 310 288 264 262 262 254 260 265 252 231 90 37 7 345 72 106 142 149 56 36 56 103 121 139 136 125 108 93 76 50 35 27 16 4 351 338 338 341 339 334 332 330 329 329 329 331 335 337 338 338 337 337 338 337 336 334 332 330 328 328 328 325 324 325 326 326 326 325 325 326 325 324 319 315 313 313 314 313 313 317 321 322 323 321 318 316 315 312 309 308 308 308 306 305 303 299
292 293 276 242 228 223 231 244 244 249 244 68 36 360 334 50 93 59 43 24 356 332 134 137 160 164 154 142 92 37 0 353 350 349 341 335 325 325 332 334 328 326 325 324 325 327 330 334 336 337 338 337 337 337 335 333 332 331 330 328 327 327 325 323 324 325 326 326 325 324 323 323 322 319 314 311 311 311 310 313 317 319 320 320 319 317 315 314 312 311 310 309 309 308 305 303 300
286 303 317 294 231 200 226 223 224 295 4 60 25 344 314 303 86 56 44 36 4 326 308 153 171 179 173 180 237 335 338 331 326 327 323 323 315 311 324 328 323 320 319 319 320 324 327 332 335 336 337 337 337 335 333 331 330 330 328 326 326 326 325 324 325 326 327 327 324 322 322 324 322 317 312 310 311 311 312 315 319 320 319 318 317 316 314 314 313 312 310 309 308 306 304 303 301
351 349 348 344 345 358 317 329 349 339 29 61 9 339 323 90 84 51 49 47 35 30 55 147 166 179 186 212 262 295 316 313 314 318 317 318 313 308 318 320 316 313 312 314 317 322 327 333 337 337 337 336 334 331 330 328 328 328 324 323 324 324 323 322 322 324 324 323 321 319 321 323 320 315 311 309 310 311 313 316 318 318 317 317 316 315 314 314 313 312 310 309 307 305 304 301 298
11 3 357 5 8 357 340 352 358 338 0 33 359 335 344 106 102 68 68 69 69 84 100 143 165 186 207 232 265 289 307 310 312 314 315 312 299 302 313 314 310 308 309 312 317 325 331 337 341 338 335 333 330 330 332 332 333 329 320 320 324 324 322 321 322 323 323 322 320 319 320 321 318 312 308 306 307 310 313 315 316 315 315 314 314 313 313 313 313 312 309 307 306 304 302 299 297
11 6 357 17 20 355 334 338 348 332 316 320 330 339 344 5 105 105 106 111 113 129 139 153 175 197 220 246 274 294 304 311 314 313 314 307 289 297 308 311 308 306 308 312 319 328 333 338 341 336 331 331 330 333 336 337 338 330 314 318 325 328 327 325 325 325 324 323 322 319 319 320 317 310 306 304 304 307 313 315 314 313 313 312 311 311 311 311 311 310 308 306 306 304 302 300 299
9 5 359 24 15 327 308 308 305 306 302 299 81 63 33 52 116 126 133 134 134 155 169 181 205 224 247 266 283 296 302 310 314 314 315 304 289 298 306 307 306 303 305 312 322 331 334 337 339 334 328 330 330 332 334 335 336 328 314 317 324 328 328 326 326 324 324 324 322 319 316 316 315 310 305 301 301 307 313 315 315 315 314 313 312 312 312 311 311 308 307 307 306 305 303 302 301
321 357 9 1 332 299 304 300 254 266 289 313 43 48 96 125 140 149 159 162 160 185 221 239 250 259 272 285 293 300 305 309 311 315 317 303 291 300 307 305 302 300 307 317 327 332 334 335 336 331 327 328 328 330 332 333 332 326 319 319 323 326 326 326 325 324 324 323 320 319 316 314 313 310 304 302 305 310 314 316 316 315 314 314 313 313 313 313 311 308 306 305 305 304 303 302 301
338 4 359 324 273 253 294 314 313 305 310 322 346 342 288 239 180 159 175 191 199 227 260 269 272 280 289 297 301 304 308 310 314 320 323 311 295 300 306 303 299 303 313 324 328 330 332 332 332 329 326 326 327 329 330 330 328 323 320 320 323 325 325 324 324 323 323 321 320 319 316 313 312 309 307 307 310 313 314 314 312 311 312 312 310 310 311 310 309 307 303 301 301 301 298 298 297
52 12 339 326 290 303 312 330 332 324 319 318 332 338 299 268 142 150 171 196 327 288 286 282 287 294 298 301 306 309 311 312 316 320 322 317 301 293 300 301 302 310 318 323 325 327 328 329 329 327 324 324 325 327 328 327 324 318 317 320 322 323 323 323 323 321 321 321 321 319 316 314 312 310 310 311 313 313 311 309 308 307 307 306 304 304 305 304 302 300 299 297 297 297 293 291 291
66 9 352 355 344 331 342 349 319 316 316 314 318 318 311 125 119 139 158 180 309 313 310 305 303 302 301 305 310 313 312 313 316 316 316 315 305 287 288 299 306 314 317 317 321 324 325 326 328 326 323 322 323 324 325 325 321 316 317 320 321 321 322 322 320 319 320 321 320 317 315 313 311 310 310 311 312 311 309 308 306 305 304 303 303 302 301 300 296 294 294 292 291 292 289 287 288
7 4 15 2 346 278 285 307 350 329 310 307 313 308 315 100 113 131 144 188 268 282 297 313 310 304 306 310 311 313 313 312 314 315 313 313 305 288 286 297 307 313 313 313 317 320 322 325 326 324 323 321 321 322 323 323 320 318 317 319 320 321 322 321 319 320 322 321 318 315 314 313 311 311 311 310 311 310 307 305 303 303 302 301 300 300 298 296 293 291 290 288 287 287 287 285 284
16 12 7 357 1 332 299 323 90 306 293 304 303 294 303 94 123 131 144 221 257 253 286 314 312 307 309 310 311 313 312 310 310 312 311 308 304 295 291 298 305 310 311 311 315 319 321 323 323 323 322 319 319 321 322 322 320 318 317 318 320 321 322 321 321 323 322 320 317 314 313 313 311 312 311 309 310 308 304 302 302 301 299 297 297 296 295 293 291 290 290 290 289 288 289 289 286